www.pogodaiklimat.ru

Погода и климат >> Архив погоды >> Россия >> Московская область >> Можайск


АРХИВ ПОГОДЫ в Можайске

Время (UTC), дата Ветер
(напр.,м/с)
 
Видим.   Явления Облачность Т
(С)
Тd
(С)
f
(%)
Тe
(С)
Тes
(С)
Комфортность P
(гПа)
Po
(гПа)
Тmin
(С)
Tmax
(С)
R
(мм)
R24
(мм)
S
(см)
15 13.06 В 2 10 км 3/0
[Ci sp]
+20.5 +0.3 26 +21 +25 комфорт 1024.5 1002.8
18 13.06 ЮВ 2 10 км ясно +17.5 +2.1 36 +18 +18 1023.8 1001.9 +21.4
21 13.06 ЮВ 1 10 км 3/3 600 м
[Sc]
+14.0 +2.8 47 +15 +15 1024.9 1002.7
00 14.06 Ю 2 10 км 6/3 600 м
[Sc Ci]
+10.6 +3.9 63 +9 +9 1024.1 1001.7
03 14.06 Ю 2 10 км 9/0
[Ci]
+12.6 +5.3 61 +12 +13 1022.3 1000.1 +9.3
06 14.06 Ю 2 10 км гроза без осадков 9/9 600 м
[Cb cap]
+18.2 +7.3 49 +19 +20 1021.1 999.4 +9.3
09 14.06 Ю 3 10 км {гроза, ливн. осадки} 9/8 600 м
[Cu med, cong Ci sp]
+21.1 +13.5 62 +24 +26 комфорт 1017.8 996.4
12 14.06 З 1
{11}
10 км {гроза, ливн. осадки} 9/8 600 м
[Cb cap Ci sp]
+23.0 +17.7 72 +28 +31 душно 1016.0 994.8
15 14.06 Ю 1 10 км в посл. час гроза {ливн. осадки} 9/9 600 м
[Cb cap]
+20.8 +20.2 96 +27 +27 душно 1013.1 991.8 12
18 14.06 ЮЗ 1 10 км гроза, ливневой дождь 9/9 600 м
[Cb cap]
+18.4 +18.2 99 +20 +20 1014.7 993.2 +24.3 23
21 14.06 СВ 1 10 км {гроза, ливн. осадки} 9/9 600 м
[Cb cap]
+18.0 +17.9 99 +19 +19 1014.7 993.1
00 15.06 штиль 0 4000 м дымка {гроза, ливн. осадки} 5/3 600 м
[Sc Ci sp]
+15.6 +15.5 99 +15 +15 1014.7 992.9
03 15.06 СВ 1 4000 м дымка 10/10 600 м
[Sc]
+15.3 +15.2 99 +16 +16 1015.0 993.2 +14.8 12
06 15.06 В 1 10 км 10/10 600 м
[Cb cap]
+15.6 +14.8 95 +16 +16 1015.2 993.4 +14.7 0.0
09 15.06 З 1 10 км слаб. ливневой дождь 10/10 600 м
[Cb cap]
+17.9 +16.5 92 +19 +19 1015.1 993.6
12 15.06 СЗ 1 10 км {ливн. осадки} 10/10 600 м
[Cb cap]
+18.8 +16.9 89 +21 +21 комфорт 1014.6 993.1
15 15.06 С 2 10 км 8/6 600 м
[Cb cap Ci sp]
+19.7 +16.2 80 +23 +24 комфорт 1014.3 992.9 3
18 15.06 штиль 0 10 км 3/3 600 м
[Sc diur, vesp Ci sp]
+17.6 +15.6 88 +18 +18 1014.3 992.7 +19.8 3
21 15.06 ЮЗ 1 4000 м дымка 3/3 600 м
[Sc]
+14.1 +13.9 99 +14 +14 1014.4 992.5
00 16.06 СЗ 1 4000 м дымка {туман} 5/4 600 м
[Sc Ci sp]
+13.7 +13.5 99 +14 +14 1014.6 992.6
03 16.06 СЗ 3 10 км ясно +14.3 +13.0 92 +13 +14 1014.7 992.8 +12.9
06 16.06 С 2 10 км 9/8 600 м
[Sc Ci sp]
+16.4 +13.5 83 +17 +18 1015.3 993.6 +12.9
09 16.06 СЗ 4 10 км 8/8 600 м
[Cu med, cong]
+20.2 +12.3 60 +22 +24 комфорт 1015.2 993.8
12 16.06 С 3 10 км 9/9 600 м
[Sc]
+20.4 +11.6 57 +23 +24 комфорт 1015.5 994.1
15 16.06 СЗ 2 10 км 5/4 600 м
[Cu med, cong Ci sp]
+21.1 +11.2 53 +23 +25 комфорт 1014.7 993.3
18 16.06 штиль 0 10 км 3/3 600 м
[Sc diur, vesp]
+17.8 +12.5 71 +18 +18 1015.3 993.7 +21.5
21 16.06 Ю 1 10 км ясно +13.6 +12.8 95 +14 +14 1015.9 994.0
00 17.06 штиль 0 10 км ясно +11.0 +10.8 99 +10 +10 1016.0 993.9
03 17.06 Ю 1 10 км 8/8 600 м
[Sc]
+14.6 +12.7 88 +15 +15 1016.2 994.3 +10.3
06 17.06 З 1 10 км 8/8 600 м
[Sc]
+20.6 +14.1 66 +24 +26 комфорт 1015.6 994.2 +10.3
09 17.06 З 2 10 км 5/3 600 м
[Cu hum Cc]
+25.3 +11.1 41 +27 +37 жарко 1014.9 993.8
12 17.06 ЮЗ 1 10 км 9/9 600 м
[Cb cap]
+22.9 +13.3 55 +26 +28 жарко 1014.5 993.3
15 17.06 З 2 10 км 5/5 600 м
[Cb cap]
+22.6 +15.0 62 +26 +28 жарко 1013.7 992.5
18 17.06 ЮЗ 2 10 км 8/8 600 м
[Sc diur, vesp]
+20.0 +14.6 71 +23 +23 комфорт 1013.4 992.0 +26.6
21 17.06 ЮЗ 1 10 км 9/9 600 м
[Sc]
+18.0 +15.2 84 +19 +19 1013.5 992.0
00 18.06 штиль 0 10 км 6/6 600 м
[Sc]
+15.9 +15.0 94 +16 +16 1013.6 991.9
03 18.06 З 1 10 км 3/3 600 м
[Sc]
+18.5 +16.5 88 +20 +21 1013.8 992.3 +15.3
06 18.06 СЗ 3 10 км 3/1 600 м
[Sc Ci sp]
+21.8 +14.7 64 +25 +31 комфорт 1013.5 992.2 +15.3
09 18.06 СЗ 3 10 км 4/3 600 м
[Cu med, cong Ci sp]
+23.8 +12.6 49 +26 +35 жарко 1013.8 992.7
12 18.06 З 5 10 км 8/8 600 м
[Cu med, cong]
+26.1 +12.8 44 +28 +29 жарко 1013.2 992.2
15 18.06 З 3 10 км {ливн. осадки} 3/1 600 м
[Cu med, cong Ci sp]
+23.1 +13.9 56 +27 +29 душно 1013.4 992.2 0.0
18 18.06 З 2 10 км {ливн. осадки} ясно +20.1 +14.6 71 +23 +23 комфорт 1014.0 992.6 +27.2 0.0
21 18.06 штиль 0 10 км ясно +15.2 +12.3 83 +15 +15 1015.8 994.0
00 19.06 ЮЗ 1 10 км ясно +12.4 +10.3 87 +12 +12 1016.8 994.7
03 19.06 штиль 0 10 км ясно +16.4 +11.0 70 +16 +18 1017.1 995.3 +11.6
06 19.06 З 2 10 км ясно +22.2 +13.6 58 +25 +34 комфорт 1016.9 995.6 +11.6
09 19.06 СЗ 4 10 км 8/6 600 м
[Cu med, cong Ci sp]
+24.4 +12.2 46 +26 +30 жарко 1017.2 996.0
12 19.06 СЗ 4 10 км 6/3 600 м
[Cu med, cong Ci sp]
+25.8 +10.5 38 +27 +32 жарко 1016.7 995.6
15 19.06 З 2 10 км 4/3 600 м
[Cu med, cong Ci sp]
+25.8 +11.5 41 +27 +30 жарко 1016.0 995.0
18 19.06 З 1 10 км 1/1 600 м
[Sc diur, vesp]
+21.2 +13.2 60 +24 +24 комфорт 1016.0 994.6 +27.1
21 19.06 штиль 0 10 км ясно +15.3 +12.9 86 +15 +15 1017.3 995.5
00 20.06 В 1 10 км ясно +12.4 +11.6 95 +12 +12 1018.0 995.9
03 20.06 Ю 1 10 км 5/5 600 м
[Sc]
+16.3 +13.1 81 +17 +18 1018.3 996.5 +11.8
06 20.06 С 1 10 км 1/0
[Ci sp]
+24.8 +14.6 53 +27 +38 жарко 1017.5 996.4 +11.8
09 20.06 З 1 10 км 6/6 600 м
[Cu med, cong]
+28.3 +8.8 29 +28 +35 жарко 1017.0 996.0
12 20.06 СЗ 2 10 км 8/8 600 м
[Cu med, cong]
+28.0 +10.9 34 +29 +31 жарко 1016.4 995.5

 

Местоположение метеостанции Можайск (Московская область, Россия): широта 55.52 долгота 36.00 высота над уровнем моря 185 м.

В архиве по умолчанию представлена погода в Можайске за последнюю неделю. Архивные данные за месяц целиком и за предыдущие месяцы, начиная с января 2011 года, Вы можете получить, выбрав интересующий диапазон дат из раскрывающегося списка и нажав кнопку "Ввод!".


*Определитесь, кто Вы:
робот инопланетянин человек

Внимание! Время в таблицах - всемирное. Для получения местного времени необходимо прибавить поправку, которая равна 3 ч.

Смотрите также архив погоды в соседних городах и на ближайших метеорологических станциях:

Погода в Наро-Фоминске (Московская область, Россия) (47 км)
Погода в Волоколамске (Московская область, Россия) (56 км)
Погода в Обнинске (Калужская область, Россия) (60 км)
Погода в Гагарине (Смоленская область, Россия) (61 км)
Погода в Малоярославце (Калужская область, Россия) (63 км)
Погода в Шаховской (Московская область, Россия) (65 км)
Погода в Ново-Иерусалиме (Московская область, Россия) (67 км)
Погода в Толстопальцево (город Москва, Россия) (77 км)
Погода в Михайловском (город Москва, Россия) (78 км)
Погода в Подмосковной (Московская область, Россия) (79 км)

Пояснения к столбцам:

Ветер - указаны скорость ветра в м/с - средняя за 10 мин, порывы в срок и между сроками (в фигурных скобках) и направление, откуда дует ветер: С - северный, СВ - северо-восточный, В - восточный, ЮВ - юго-восточный, Ю - южный, ЮЗ - юго-западный, З - западный, СЗ - северо-западный.
Видимость - горизонтальная дальность видимости в метрах или километрах. При видимости от 1 до 10 км при отсутствии осадков обычно наблюдается дымка, при ухудшении видимости до 1 км и менее - туман. В сухую погоду видимость может ухудшаться дымом, пылью или мглою.
Явления - указаны атмосферные явления, наблюдавшиеся в срок или в последний час перед сроком; фигурными скобками обозначены явления, наблюдавшиеся между сроками (за 1-3 часа до срока); квадратными скобками обозначены град или гололедные отложения с указанием их диаметра в мм.
Облачность - указаны через наклонную черту общая и нижняя облачность в баллах и высота нижней границы облаков в метрах; квадратными скобками обозначены формы облаков: Ci - перистые, Cs - перисто-слоистые, Cc - перисто-кучевые, Ac - высококучевые, As - высокослоистые, Sc - слоисто-кучевые, Ns - слоисто-дождевые, Cu - кучевые, Cb - кучево-дождевые. Подробнее классификацию облаков см. в Атласе облаков (PDF).
T - Температура воздуха - температура, измеренная на высоте 2 м над землей.
Td - Температура точки росы - температура, при понижении до которой содержащийся в воздухе водяной пар достигнет насыщения.
f - Относительная влажность воздуха - влажноcть воздуха, измеренная на высоте 2 м над землей.
Te - Эффективная температура - температура, которую ощущает одетый по сезону человек в тени. Характеристика душности погоды. При расчете учитывается влияние влажности воздуха и скорости ветра на теплоощущения человека.
Tes - Эффективная температура на солнце - температура, которую ощущает человек, с поправкой на солнечный нагрев. Характеристика знойности погоды. Зависит от высоты солнца над горизонтом, облачности и скорости ветра. Ночью, в пасмурную погоду, а также при ветре 12 м/с и более поправка равна нулю.
P - Атмосферное давление - приведенное к уровню моря атмосферное давление.
Po - Атмосферное давление - измеренное на уровне метеостанции атмосферное давление.
Tmin - Минимальная температура - минимум температуры воздуха на высоте 2 м над землей.
Tmax - Максимальная температура - максимум температуры воздуха на высоте 2 м над землей.
R - Количество осадков - Количество выпавших осадков за период времени, мм. При наведении курсора мыши на число - период времени, за который выпало указанное количество осадков.
R24 - Количество осадков - Количество выпавших осадков за 24 часа, мм.
S - Снежный покров - Высота снежного покрова, см. При наведении курсора мыши на число - состояние снежного покрова и степень покрытия местности в баллах.